Regional Weather Roundup
Issued by NWS Sioux Falls, SD

Home | Current Version | Previous Version | Graphics & Text | Print | Product List | Glossary Off
Versions: 1 2 3 4 5 6 7 8 9 10 11 12 13 14 15 16 17 18 19 20 21 22 23 24 25 26 27 28 29 30 31 32 33 34 35 36 37 38 39 40 41 42 43 44 45 46 47 48 49 50

000
ASUS43 KFSD 301110
RWRFSD

WEATHER ROUNDUP FOR SE SOUTH DAKOTA/SW MINNESOTA/NW IOWA
NATIONAL WEATHER SERVICE SIOUX FALLS SD
600 AM CDT SAT AUG 30 2014

NOTE: "FAIR" INDICATES FEW OR NO CLOUDS BELOW 12,000 FEET WITH NO
SIGNIFICANT WEATHER AND OR OBSTRUCTIONS TO VISIBILITY.


SDZ038>040-050-052>070-301200-
SOUTHEAST SOUTH DAKOTA

CITY           SKY/WX    TMP DP  RH WIND       PRES   REMARKS
CHAMBERLAIN    CLOUDY    55  55  97 NW5       29.97S
HURON          CLOUDY    60  56  86 NW12      29.93R
MADISON        CLOUDY    61  61 100 N9        29.91S FOG
MITCHELL       CLOUDY    61  59  93 NW9       29.93S
SIOUX FALLS    CLOUDY    65  63  93 NW9       29.89S
WINNER         FOG       55  54  96 W3        29.98S VSB 1/4
YANKTON        MOCLDY    61  57  88 NW12      29.92S
$$

MNZ071-072-080-081-089-090-097-098-301200-
SOUTHWEST MINNESOTA

CITY           SKY/WX    TMP DP  RH WIND       PRES   REMARKS
FAIRMONT       CLOUDY    64  57  77 NW8       29.83R
JACKSON        CLOUDY    64  63  94 NW7G16    29.86R
LUVERNE        CLOUDY    64  63  94 CALM      29.89R
MARSHALL       CLOUDY    61  57  88 NW12      29.86S
MONTEVIDEO     CLOUDY    63  63 100 N6        29.87S FOG
PIPESTONE      CLOUDY    64  63  94 N8        29.89S FOG
REDWOOD FALLS  CLOUDY    66  65  96 NW10      29.84R
TRACY          FOG       63  62  97 NW6       29.87S VSB 1
WINDOM         CLOUDY    66  64  94 NW8       29.86R
WORTHINGTON    CLOUDY    64  64 100 N8        29.89R
$$

IAZ001>003-012>014-020>022-031-032-NEZ013-014-SDZ071-301200-
NORTHWEST IOWA

CITY           SKY/WX    TMP DP  RH WIND       PRES   REMARKS
CHEROKEE       PTCLDY    62  62 100 CALM      29.87R FOG
DENISON        CLOUDY    66  66 100 NW5       29.87R FOG
ESTHERVILLE    CLOUDY    65  65 100 NW8       29.84S
LE MARS          N/A     66  64  94 VRB7      29.89R
ORANGE CITY    CLOUDY    66  64  94 NW9       29.88R FOG
SHELDON        FOG       63  63 100 NW3       29.87R VSB<1/4
SIOUX CITY     CLOUDY    66  65  96 NW10G18   29.88R
SPENCER        CLEAR     62  61  96 W5        29.86R FOG
STORM LAKE     FOG       64  64 100 W7        29.87R VSB 3/4
$$

ABBREVIATIONS USED IN REMARKS
   TC - TEMPERATURE IN CELSIUS
  WCI - WIND CHILL INDEX
   HX - HEAT INDEX
  VSB - VISIBILITY




USA.gov is the U.S. government's official web portal to all federal, state and local government web resources and services.